Time,TemperatureF,DewpointF,PressureIn,WindDirection,WindDirectionDegrees,WindSpeedMPH,WindSpeedGustMPH,Humidity,HourlyPrecipIn,Conditions,Clouds,dailyrainin,SoftwareType,DateUTC
2013-02-19 00:00:00,57.6,51.1,30.22,ENE,74,0.0,-999.0,79,0.00,,,0.00,Wunderground v.1.15,2013-02-19 05:00:00,
2013-02-19 00:05:00,57.5,50.7,30.22,ENE,74,0.0,-999.0,78,0.00,,,0.00,Wunderground v.1.15,2013-02-19 05:05:00,
2013-02-19 00:10:00,57.4,50.6,30.21,ENE,74,0.0,-999.0,78,0.00,,,0.00,Wunderground v.1.15,2013-02-19 05:10:00,
2013-02-19 00:15:00,57.4,50.6,30.21,ENE,74,0.0,-999.0,78,0.00,,,0.00,Wunderground v.1.15,2013-02-19 05:15:00,
2013-02-19 00:20:00,57.3,50.5,30.21,ENE,74,0.0,-999.0,78,0.00,,,0.00,Wunderground v.1.15,2013-02-19 05:20:00,
2013-02-19 00:25:00,57.3,50.8,30.21,ENE,74,0.0,-999.0,79,0.00,,,0.00,Wunderground v.1.15,2013-02-19 05:25:00,
2013-02-19 00:35:00,57.2,51.1,30.21,ENE,74,0.0,-999.0,80,0.00,,,0.00,Wunderground v.1.15,2013-02-19 05:35:00,
2013-02-19 00:40:00,57.1,51.0,30.21,ENE,74,0.0,-999.0,80,0.00,,,0.00,Wunderground v.1.15,2013-02-19 05:40:00,
2013-02-19 00:45:00,57.0,50.9,30.21,ENE,74,0.0,-999.0,80,0.00,,,0.00,Wunderground v.1.15,2013-02-19 05:45:00,
2013-02-19 00:50:00,57.0,51.2,30.21,ENE,74,0.0,-999.0,81,0.00,,,0.00,Wunderground v.1.15,2013-02-19 05:50:00,
2013-02-19 00:55:00,57.0,51.6,30.20,ENE,72,0.0,-999.0,82,0.00,,,0.00,Wunderground v.1.15,2013-02-19 05:55:00,
2013-02-19 01:05:00,57.0,51.6,30.20,ENE,71,1.0,-999.0,82,0.00,,,0.00,Wunderground v.1.15,2013-02-19 06:05:00,
2013-02-19 01:10:00,57.0,51.6,30.20,ENE,71,1.0,-999.0,82,0.00,,,0.00,Wunderground v.1.15,2013-02-19 06:10:00,
2013-02-19 01:15:00,56.9,51.5,30.20,ENE,70,1.0,-999.0,82,0.00,,,0.00,Wunderground v.1.15,2013-02-19 06:15:00,
2013-02-19 01:25:00,56.8,51.7,30.19,ENE,69,1.0,-999.0,83,0.00,,,0.00,Wunderground v.1.15,2013-02-19 06:25:00,
2013-02-19 01:30:00,56.8,51.7,30.19,ENE,71,1.0,-999.0,83,0.00,,,0.00,Wunderground v.1.15,2013-02-19 06:30:00,
2013-02-19 01:35:00,56.8,52.0,30.19,ENE,71,1.0,-999.0,84,0.00,,,0.00,Wunderground v.1.15,2013-02-19 06:35:00,
2013-02-19 01:40:00,56.8,52.0,30.19,ENE,71,1.0,-999.0,84,0.00,,,0.00,Wunderground v.1.15,2013-02-19 06:40:00,
2013-02-19 01:45:00,56.7,51.9,30.19,ENE,72,1.0,-999.0,84,0.00,,,0.00,Wunderground v.1.15,2013-02-19 06:45:00,
2013-02-19 01:50:00,56.7,52.2,30.19,ENE,72,1.0,-999.0,85,0.00,,,0.00,Wunderground v.1.15,2013-02-19 06:50:00,
2013-02-19 02:00:00,56.6,51.8,30.18,ENE,72,1.0,-999.0,84,0.00,,,0.00,Wunderground v.1.15,2013-02-19 07:00:00,
2013-02-19 02:05:00,56.6,52.1,30.18,ENE,71,1.0,-999.0,85,0.00,,,0.00,Wunderground v.1.15,2013-02-19 07:05:00,
2013-02-19 02:15:00,56.8,52.3,30.18,ENE,70,1.0,-999.0,85,0.00,,,0.00,Wunderground v.1.15,2013-02-19 07:15:00,
2013-02-19 02:20:00,56.8,52.0,30.18,ENE,69,1.0,-999.0,84,0.00,,,0.00,Wunderground v.1.15,2013-02-19 07:20:00,
2013-02-19 02:25:00,56.8,52.0,30.18,ENE,69,0.0,-999.0,84,0.00,,,0.00,Wunderground v.1.15,2013-02-19 07:25:00,
2013-02-19 02:30:00,56.8,52.3,30.18,ENE,69,0.0,-999.0,85,0.00,,,0.00,Wunderground v.1.15,2013-02-19 07:30:00,
2013-02-19 02:35:00,56.9,52.4,30.18,ENE,69,0.0,-999.0,85,0.00,,,0.00,Wunderground v.1.15,2013-02-19 07:35:00,
2013-02-19 02:40:00,56.9,52.4,30.18,ENE,69,0.0,-999.0,85,0.00,,,0.00,Wunderground v.1.15,2013-02-19 07:40:00,
2013-02-19 02:45:00,57.1,52.3,30.18,ENE,69,0.0,-999.0,84,0.00,,,0.00,Wunderground v.1.15,2013-02-19 07:45:00,
2013-02-19 02:55:00,57.2,52.4,30.18,ENE,69,0.0,-999.0,84,0.00,,,0.00,Wunderground v.1.15,2013-02-19 07:55:00,
2013-02-19 03:00:00,57.2,52.4,30.17,ENE,69,0.0,-999.0,84,0.00,,,0.00,Wunderground v.1.15,2013-02-19 08:00:00,
2013-02-19 03:05:00,57.2,52.4,30.17,ENE,69,0.0,-999.0,84,0.00,,,0.00,Wunderground v.1.15,2013-02-19 08:05:00,
2013-02-19 03:15:00,57.1,52.6,30.17,ENE,69,0.0,-999.0,85,0.00,,,0.00,Wunderground v.1.15,2013-02-19 08:15:00,
2013-02-19 03:20:00,57.0,52.5,30.17,ENE,69,0.0,-999.0,85,0.00,,,0.00,Wunderground v.1.15,2013-02-19 08:20:00,
2013-02-19 03:25:00,56.8,52.3,30.16,ENE,69,0.0,-999.0,85,0.00,,,0.00,Wunderground v.1.15,2013-02-19 08:25:00,
2013-02-19 03:30:00,56.7,52.2,30.16,ENE,69,0.0,-999.0,85,0.00,,,0.00,Wunderground v.1.15,2013-02-19 08:30:00,
2013-02-19 03:35:00,56.5,52.4,30.16,ENE,69,0.0,-999.0,86,0.00,,,0.00,Wunderground v.1.15,2013-02-19 08:35:00,
2013-02-19 03:40:00,56.4,52.3,30.17,ENE,69,0.0,-999.0,86,0.00,,,0.00,Wunderground v.1.15,2013-02-19 08:40:00,
2013-02-19 03:50:00,56.3,52.2,30.17,ENE,69,0.0,-999.0,86,0.00,,,0.00,Wunderground v.1.15,2013-02-19 08:50:00,
2013-02-19 03:55:00,56.2,52.4,30.17,ENE,69,0.0,-999.0,87,0.00,,,0.00,Wunderground v.1.15,2013-02-19 08:55:00,
2013-02-19 04:00:00,56.2,52.4,30.17,ENE,69,0.0,-999.0,87,0.00,,,0.00,Wunderground v.1.15,2013-02-19 09:00:00,
2013-02-19 04:10:00,56.0,51.9,30.17,ENE,69,0.0,-999.0,86,0.00,,,0.00,Wunderground v.1.15,2013-02-19 09:10:00,
2013-02-19 04:15:00,55.8,51.7,30.17,ENE,69,0.0,-999.0,86,0.00,,,0.00,Wunderground v.1.15,2013-02-19 09:15:00,
2013-02-19 04:20:00,55.6,51.5,30.17,ENE,69,0.0,-999.0,86,0.00,,,0.00,Wunderground v.1.15,2013-02-19 09:20:00,
2013-02-19 04:30:00,55.2,51.1,30.17,ENE,69,0.0,-999.0,86,0.00,,,0.00,Wunderground v.1.15,2013-02-19 09:30:00,
2013-02-19 04:35:00,55.0,50.9,30.17,ENE,69,0.0,-999.0,86,0.00,,,0.00,Wunderground v.1.15,2013-02-19 09:35:00,
2013-02-19 04:40:00,54.7,50.6,30.17,ENE,69,0.0,-999.0,86,0.00,,,0.00,Wunderground v.1.15,2013-02-19 09:40:00,
2013-02-19 04:45:00,54.5,51.3,30.17,ENE,69,0.0,-999.0,89,0.00,,,0.00,Wunderground v.1.15,2013-02-19 09:45:00,
2013-02-19 04:50:00,54.2,50.4,30.17,ENE,69,0.0,-999.0,87,0.00,,,0.00,Wunderground v.1.15,2013-02-19 09:50:00,
2013-02-19 04:55:00,54.1,50.3,30.17,ENE,69,0.0,-999.0,87,0.00,,,0.00,Wunderground v.1.15,2013-02-19 09:55:00,
2013-02-19 05:05:00,53.8,50.3,30.17,ENE,69,0.0,-999.0,88,0.00,,,0.00,Wunderground v.1.15,2013-02-19 10:05:00,
2013-02-19 05:10:00,53.7,50.2,30.17,ENE,69,0.0,-999.0,88,0.00,,,0.00,Wunderground v.1.15,2013-02-19 10:10:00,
2013-02-19 05:15:00,53.7,50.5,30.17,ENE,69,0.0,-999.0,89,0.00,,,0.00,Wunderground v.1.15,2013-02-19 10:15:00,
2013-02-19 05:25:00,53.5,50.3,30.17,ENE,69,0.0,-999.0,89,0.00,,,0.00,Wunderground v.1.15,2013-02-19 10:25:00,
2013-02-19 05:30:00,53.5,50.6,30.17,ENE,69,0.0,-999.0,90,0.00,,,0.00,Wunderground v.1.15,2013-02-19 10:30:00,
2013-02-19 05:35:00,53.5,50.6,30.17,ENE,69,0.0,-999.0,90,0.00,,,0.00,Wunderground v.1.15,2013-02-19 10:35:00,
2013-02-19 05:40:00,53.6,51.0,30.17,ENE,69,0.0,-999.0,91,0.00,,,0.00,Wunderground v.1.15,2013-02-19 10:40:00,
2013-02-19 05:50:00,54.1,51.8,30.17,ENE,69,0.0,-999.0,92,0.00,,,0.00,Wunderground v.1.15,2013-02-19 10:50:00,
2013-02-19 05:55:00,54.3,52.0,30.18,ENE,69,0.0,-999.0,92,0.00,,,0.00,Wunderground v.1.15,2013-02-19 10:55:00,
2013-02-19 06:00:00,54.3,51.4,30.18,ENE,69,0.0,-999.0,90,0.00,,,0.00,Wunderground v.1.15,2013-02-19 11:00:00,
2013-02-19 06:10:00,53.6,50.4,30.18,ENE,69,0.0,-999.0,89,0.00,,,0.00,Wunderground v.1.15,2013-02-19 11:10:00,
2013-02-19 06:15:00,53.4,50.5,30.18,ENE,69,0.0,-999.0,90,0.00,,,0.00,Wunderground v.1.15,2013-02-19 11:15:00,
2013-02-19 06:20:00,53.2,50.3,30.18,ENE,69,0.0,-999.0,90,0.00,,,0.00,Wunderground v.1.15,2013-02-19 11:20:00,
2013-02-19 06:25:00,53.1,50.5,30.18,ENE,69,0.0,-999.0,91,0.00,,,0.00,Wunderground v.1.15,2013-02-19 11:25:00,
2013-02-19 06:30:00,53.1,50.5,30.18,ENE,69,0.0,-999.0,91,0.00,,,0.00,Wunderground v.1.15,2013-02-19 11:30:00,
2013-02-19 06:40:00,53.0,50.4,30.18,ENE,69,0.0,-999.0,91,0.00,,,0.00,Wunderground v.1.15,2013-02-19 11:40:00,
2013-02-19 06:45:00,53.0,50.7,30.18,ENE,69,0.0,-999.0,92,0.00,,,0.00,Wunderground v.1.15,2013-02-19 11:45:00,
2013-02-19 06:55:00,53.3,51.6,30.18,ENE,69,0.0,-999.0,94,0.00,,,0.00,Wunderground v.1.15,2013-02-19 11:55:00,
2013-02-19 07:00:00,53.6,52.2,30.18,ENE,69,0.0,-999.0,95,0.00,,,0.00,Wunderground v.1.15,2013-02-19 12:00:00,
2013-02-19 07:10:00,54.5,53.1,30.17,ENE,69,0.0,-999.0,95,0.00,,,0.00,Wunderground v.1.15,2013-02-19 12:10:00,
2013-02-19 07:15:00,55.0,53.3,30.17,ENE,71,0.0,-999.0,94,0.00,,,0.00,Wunderground v.1.15,2013-02-19 12:15:00,
2013-02-19 07:20:00,55.4,53.4,30.17,ENE,71,1.0,-999.0,93,0.00,,,0.00,Wunderground v.1.15,2013-02-19 12:20:00,
2013-02-19 07:25:00,55.8,53.5,30.18,ENE,71,0.0,-999.0,92,0.00,,,0.00,Wunderground v.1.15,2013-02-19 12:25:00,
2013-02-19 07:35:00,56.5,54.2,30.18,ENE,71,0.0,-999.0,92,0.00,,,0.00,Wunderground v.1.15,2013-02-19 12:35:00,
2013-02-19 07:40:00,56.9,54.3,30.18,ENE,70,1.0,-999.0,91,0.00,,,0.00,Wunderground v.1.15,2013-02-19 12:40:00,
2013-02-19 07:45:00,57.3,54.4,30.18,ENE,74,2.0,-999.0,90,0.00,,,0.00,Wunderground v.1.15,2013-02-19 12:45:00,
2013-02-19 07:55:00,57.9,54.4,30.18,ENE,69,3.0,-999.0,88,0.00,,,0.00,Wunderground v.1.15,2013-02-19 12:55:00,
2013-02-19 08:05:00,58.2,54.7,30.18,ENE,69,3.0,-999.0,88,0.00,,,0.00,Wunderground v.1.15,2013-02-19 13:05:00,
2013-02-19 08:10:00,58.5,55.0,30.18,ENE,69,3.0,-999.0,88,0.00,,,0.00,Wunderground v.1.15,2013-02-19 13:10:00,
2013-02-19 08:15:00,58.7,54.8,30.18,ENE,69,3.0,-999.0,87,0.00,,,0.00,Wunderground v.1.15,2013-02-19 13:15:00,
2013-02-19 08:20:00,59.1,55.2,30.18,ENE,69,2.0,-999.0,87,0.00,,,0.00,Wunderground v.1.15,2013-02-19 13:20:00,
2013-02-19 08:25:00,59.5,55.3,30.18,ENE,69,2.0,-999.0,86,0.00,,,0.00,Wunderground v.1.15,2013-02-19 13:25:00,
2013-02-19 08:35:00,60.7,56.2,30.18,ENE,73,3.0,-999.0,85,0.00,,,0.00,Wunderground v.1.15,2013-02-19 13:35:00,
2013-02-19 08:40:00,61.3,55.8,30.18,East,79,4.0,-999.0,82,0.00,,,0.00,Wunderground v.1.15,2013-02-19 13:40:00,
2013-02-19 08:45:00,61.8,55.9,30.18,ENE,78,3.0,-999.0,81,0.00,,,0.00,Wunderground v.1.15,2013-02-19 13:45:00,
2013-02-19 08:50:00,62.3,56.4,30.18,East,80,3.0,-999.0,81,0.00,,,0.00,Wunderground v.1.15,2013-02-19 13:50:00,
2013-02-19 08:55:00,62.9,56.6,30.18,East,83,3.0,-999.0,80,0.00,,,0.00,Wunderground v.1.15,2013-02-19 13:55:00,
2013-02-19 09:04:00,64.3,56.9,30.18,East,91,4.0,-999.0,77,0.00,,,0.00,Wunderground v.1.15,2013-02-19 14:04:00,
2013-02-19 09:10:00,65.0,57.2,30.18,East,89,5.0,-999.0,76,0.00,,,0.00,Wunderground v.1.15,2013-02-19 14:10:00,
2013-02-19 09:15:00,65.6,57.5,30.18,East,87,5.0,-999.0,75,0.00,,,0.00,Wunderground v.1.15,2013-02-19 14:15:00,
2013-02-19 09:20:00,66.1,57.6,30.18,ESE,113,5.0,-999.0,74,0.00,,,0.00,Wunderground v.1.15,2013-02-19 14:20:00,
2013-02-19 09:25:00,66.9,57.6,30.18,East,98,5.0,-999.0,72,0.00,,,0.00,Wunderground v.1.15,2013-02-19 14:25:00,
2013-02-19 09:30:00,67.6,58.2,30.18,ESE,107,4.0,-999.0,72,0.00,,,0.00,Wunderground v.1.15,2013-02-19 14:30:00,
2013-02-19 09:40:00,68.8,59.0,30.18,East,79,4.0,-999.0,71,0.00,,,0.00,Wunderground v.1.15,2013-02-19 14:40:00,
2013-02-19 09:50:00,69.5,58.9,30.18,ESE,106,5.0,-999.0,69,0.00,,,0.00,Wunderground v.1.15,2013-02-19 14:50:00,
2013-02-19 09:55:00,70.0,59.0,30.18,East,90,5.0,-999.0,68,0.00,,,0.00,Wunderground v.1.15,2013-02-19 14:55:00,
2013-02-19 10:00:00,70.4,59.3,30.18,East,99,4.0,-999.0,68,0.00,,,0.00,Wunderground v.1.15,2013-02-19 15:00:00,
2013-02-19 10:10:00,71.0,59.9,30.18,ESE,107,5.0,-999.0,68,0.00,,,0.00,Wunderground v.1.15,2013-02-19 15:10:00,
2013-02-19 10:15:00,71.4,59.9,30.18,East,90,6.0,-999.0,67,0.00,,,0.00,Wunderground v.1.15,2013-02-19 15:15:00,
2013-02-19 10:20:00,71.9,60.3,30.18,ESE,112,5.0,-999.0,67,0.00,,,0.00,Wunderground v.1.15,2013-02-19 15:20:00,
2013-02-19 10:25:00,72.2,60.2,30.18,ESE,123,5.0,-999.0,66,0.00,,,0.00,Wunderground v.1.15,2013-02-19 15:25:00,
2013-02-19 10:30:00,72.3,59.9,30.18,ENE,76,5.0,-999.0,65,0.00,,,0.00,Wunderground v.1.15,2013-02-19 15:30:00,
2013-02-19 10:40:00,72.9,60.4,30.18,ESE,106,6.0,-999.0,65,0.00,,,0.00,Wunderground v.1.15,2013-02-19 15:40:00,
2013-02-19 10:45:00,73.2,60.7,30.18,ENE,78,5.0,-999.0,65,0.00,,,0.00,Wunderground v.1.15,2013-02-19 15:45:00,
2013-02-19 10:50:00,73.3,60.8,30.18,East,81,5.0,-999.0,65,0.00,,,0.00,Wunderground v.1.15,2013-02-19 15:50:00,
2013-02-19 10:55:00,73.4,60.5,30.18,SSE,148,5.0,-999.0,64,0.00,,,0.00,Wunderground v.1.15,2013-02-19 15:55:00,
2013-02-19 11:00:00,73.7,60.3,30.19,ESE,113,4.0,-999.0,63,0.00,,,0.00,Wunderground v.1.15,2013-02-19 16:00:00,
2013-02-19 11:10:00,74.2,61.2,30.19,ESE,111,6.0,-999.0,64,0.00,,,0.00,Wunderground v.1.15,2013-02-19 16:10:00,
2013-02-19 11:15:00,74.6,60.7,30.19,ESE,111,5.0,-999.0,62,0.00,,,0.00,Wunderground v.1.15,2013-02-19 16:15:00,
2013-02-19 11:24:00,74.5,61.1,30.18,ESE,112,5.0,-999.0,63,0.00,,,0.00,Wunderground v.1.15,2013-02-19 16:24:00,
2013-02-19 11:30:00,74.6,61.2,30.18,SE,138,5.0,-999.0,63,0.00,,,0.00,Wunderground v.1.15,2013-02-19 16:30:00,
2013-02-19 11:35:00,74.7,60.8,30.18,SE,141,6.0,-999.0,62,0.00,,,0.00,Wunderground v.1.15,2013-02-19 16:35:00,
2013-02-19 11:40:00,74.6,61.2,30.19,SSE,149,5.0,-999.0,63,0.00,,,0.00,Wunderground v.1.15,2013-02-19 16:40:00,
2013-02-19 11:45:00,74.5,60.6,30.18,SE,143,5.0,-999.0,62,0.00,,,0.00,Wunderground v.1.15,2013-02-19 16:45:00,
2013-02-19 11:54:00,74.7,61.3,30.18,SE,146,5.0,-999.0,63,0.00,,,0.00,Wunderground v.1.15,2013-02-19 16:54:00,
2013-02-19 12:00:00,74.8,60.9,30.18,SSE,155,5.0,-999.0,62,0.00,,,0.00,Wunderground v.1.15,2013-02-19 17:00:00,
2013-02-19 12:10:00,75.5,61.6,30.17,SW,215,3.0,-999.0,62,0.00,,,0.00,Wunderground v.1.15,2013-02-19 17:10:00,
2013-02-19 12:15:00,75.7,61.3,30.17,SE,136,4.0,-999.0,61,0.00,,,0.00,Wunderground v.1.15,2013-02-19 17:15:00,
2013-02-19 12:20:00,75.6,61.7,30.17,ESE,121,6.0,-999.0,62,0.00,,,0.00,Wunderground v.1.15,2013-02-19 17:20:00,
2013-02-19 12:25:00,75.6,61.2,30.17,South,183,6.0,-999.0,61,0.00,,,0.00,Wunderground v.1.15,2013-02-19 17:25:00,
2013-02-19 12:34:00,75.5,61.6,30.16,SSE,159,4.0,-999.0,62,0.00,,,0.00,Wunderground v.1.15,2013-02-19 17:34:00,
2013-02-19 12:40:00,75.8,61.4,30.16,South,180,5.0,-999.0,61,0.00,,,0.00,Wunderground v.1.15,2013-02-19 17:40:00,
2013-02-19 12:45:00,75.6,61.2,30.16,SSE,167,6.0,-999.0,61,0.00,,,0.00,Wunderground v.1.15,2013-02-19 17:45:00,
2013-02-19 12:50:00,75.4,61.0,30.15,South,169,5.0,-999.0,61,0.00,,,0.00,Wunderground v.1.15,2013-02-19 17:50:00,
2013-02-19 12:55:00,75.7,62.2,30.15,SE,138,4.0,-999.0,63,0.00,,,0.00,Wunderground v.1.15,2013-02-19 17:55:00,
2013-02-19 13:05:00,76.3,61.9,30.14,SW,218,4.0,-999.0,61,0.00,,,0.00,Wunderground v.1.15,2013-02-19 18:05:00,
2013-02-19 13:10:00,76.2,61.8,30.15,SSE,148,5.0,-999.0,61,0.00,,,0.00,Wunderground v.1.15,2013-02-19 18:10:00,
2013-02-19 13:15:00,76.1,61.7,30.14,South,183,5.0,-999.0,61,0.00,,,0.00,Wunderground v.1.15,2013-02-19 18:15:00,
2013-02-19 13:20:00,75.5,61.6,30.14,SE,144,5.0,-999.0,62,0.00,,,0.00,Wunderground v.1.15,2013-02-19 18:20:00,
2013-02-19 13:30:00,75.3,61.8,30.14,South,176,4.0,-999.0,63,0.00,,,0.00,Wunderground v.1.15,2013-02-19 18:30:00,
2013-02-19 13:35:00,75.2,61.7,30.13,South,186,4.0,-999.0,63,0.00,,,0.00,Wunderground v.1.15,2013-02-19 18:35:00,
2013-02-19 13:40:00,75.3,61.8,30.13,SE,140,4.0,-999.0,63,0.00,,,0.00,Wunderground v.1.15,2013-02-19 18:40:00,
2013-02-19 13:45:00,75.6,62.6,30.13,SSE,167,4.0,-999.0,64,0.00,,,0.00,Wunderground v.1.15,2013-02-19 18:45:00,
2013-02-19 13:50:00,75.7,62.2,30.13,SW,221,5.0,-999.0,63,0.00,,,0.00,Wunderground v.1.15,2013-02-19 18:50:00,
2013-02-19 13:55:00,75.6,62.1,30.13,SW,220,6.0,-999.0,63,0.00,,,0.00,Wunderground v.1.15,2013-02-19 18:55:00,
2013-02-19 14:05:00,76.0,62.9,30.13,SSE,148,4.0,-999.0,64,0.00,,,0.00,Wunderground v.1.15,2013-02-19 19:05:00,
2013-02-19 14:10:00,76.1,62.6,30.12,SSW,200,4.0,-999.0,63,0.00,,,0.00,Wunderground v.1.15,2013-02-19 19:10:00,
2013-02-19 14:20:00,76.0,62.5,30.12,SE,138,5.0,-999.0,63,0.00,,,0.00,Wunderground v.1.15,2013-02-19 19:20:00,
2013-02-19 14:30:00,76.3,62.8,30.12,SSE,160,6.0,-999.0,63,0.00,,,0.00,Wunderground v.1.15,2013-02-19 19:30:00,
2013-02-19 14:35:00,76.4,62.9,30.12,SSE,157,5.0,-999.0,63,0.00,,,0.00,Wunderground v.1.15,2013-02-19 19:35:00,
2013-02-19 14:40:00,76.8,62.8,30.12,SW,226,5.0,-999.0,62,0.00,,,0.00,Wunderground v.1.15,2013-02-19 19:40:00,
2013-02-19 14:45:00,76.8,62.8,30.12,WSW,240,5.0,-999.0,62,0.00,,,0.00,Wunderground v.1.15,2013-02-19 19:45:00,
2013-02-19 14:55:00,76.2,62.7,30.12,SE,136,6.0,-999.0,63,0.00,,,0.00,Wunderground v.1.15,2013-02-19 19:55:00,
2013-02-19 15:00:00,76.3,62.8,30.12,SSE,161,6.0,-999.0,63,0.00,,,0.00,Wunderground v.1.15,2013-02-19 20:00:00,
2013-02-19 15:05:00,76.5,63.4,30.11,SSW,200,5.0,-999.0,64,0.00,,,0.00,Wunderground v.1.15,2013-02-19 20:05:00,
2013-02-19 15:14:00,77.0,63.4,30.11,WSW,244,5.0,-999.0,63,0.00,,,0.00,Wunderground v.1.15,2013-02-19 20:14:00,
2013-02-19 15:19:00,77.0,63.4,30.11,SSW,193,5.0,-999.0,63,0.00,,,0.00,Wunderground v.1.15,2013-02-19 20:19:00,
2013-02-19 15:24:00,76.7,63.6,30.11,South,182,5.0,-999.0,64,0.00,,,0.00,Wunderground v.1.15,2013-02-19 20:24:00,
2013-02-19 15:30:00,76.7,63.2,30.11,SE,129,5.0,-999.0,63,0.00,,,0.00,Wunderground v.1.15,2013-02-19 20:30:00,
2013-02-19 15:35:00,76.8,63.7,30.11,South,171,6.0,-999.0,64,0.00,,,0.00,Wunderground v.1.15,2013-02-19 20:35:00,
2013-02-19 15:40:00,77.1,63.5,30.10,SSE,161,4.0,-999.0,63,0.00,,,0.00,Wunderground v.1.15,2013-02-19 20:40:00,
2013-02-19 15:45:00,77.1,63.5,30.11,South,174,4.0,-999.0,63,0.00,,,0.00,Wunderground v.1.15,2013-02-19 20:45:00,
2013-02-19 15:50:00,77.0,63.0,30.10,SW,217,5.0,-999.0,62,0.00,,,0.00,Wunderground v.1.15,2013-02-19 20:50:00,
2013-02-19 15:55:00,76.6,63.1,30.10,SSE,163,6.0,-999.0,63,0.00,,,0.00,Wunderground v.1.15,2013-02-19 20:55:00,
2013-02-19 16:00:00,76.3,63.2,30.10,SSE,165,6.0,-999.0,64,0.00,,,0.00,Wunderground v.1.15,2013-02-19 21:00:00,
2013-02-19 16:10:00,76.6,63.5,30.10,SW,218,5.0,-999.0,64,0.00,,,0.00,Wunderground v.1.15,2013-02-19 21:10:00,
2013-02-19 16:15:00,76.4,63.8,30.10,SW,227,5.0,-999.0,65,0.00,,,0.00,Wunderground v.1.15,2013-02-19 21:15:00,
2013-02-19 16:20:00,76.4,63.8,30.10,SSE,147,4.0,-999.0,65,0.00,,,0.00,Wunderground v.1.15,2013-02-19 21:20:00,
2013-02-19 16:25:00,76.3,63.7,30.09,South,188,4.0,-999.0,65,0.00,,,0.00,Wunderground v.1.15,2013-02-19 21:25:00,
2013-02-19 16:35:00,76.3,64.1,30.09,SSE,159,4.0,-999.0,66,0.00,,,0.00,Wunderground v.1.15,2013-02-19 21:35:00,
2013-02-19 16:40:00,76.3,64.1,30.09,South,186,4.0,-999.0,66,0.00,,,0.00,Wunderground v.1.15,2013-02-19 21:40:00,
2013-02-19 16:45:00,76.2,64.0,30.10,SSE,151,5.0,-999.0,66,0.00,,,0.00,Wunderground v.1.15,2013-02-19 21:45:00,
2013-02-19 16:50:00,76.0,63.8,30.10,SSE,164,5.0,-999.0,66,0.00,,,0.00,Wunderground v.1.15,2013-02-19 21:50:00,
2013-02-19 16:55:00,75.7,64.0,30.10,SSE,159,4.0,-999.0,67,0.00,,,0.00,Wunderground v.1.15,2013-02-19 21:55:00,
2013-02-19 17:00:00,75.6,63.9,30.10,SSE,149,4.0,-999.0,67,0.00,,,0.00,Wunderground v.1.15,2013-02-19 22:00:00,
2013-02-19 17:10:00,75.3,63.6,30.10,SE,140,4.0,-999.0,67,0.00,,,0.00,Wunderground v.1.15,2013-02-19 22:10:00,
2013-02-19 17:15:00,75.1,64.2,30.10,SW,218,4.0,-999.0,69,0.00,,,0.00,Wunderground v.1.15,2013-02-19 22:15:00,
2013-02-19 17:20:00,74.8,63.9,30.10,SE,146,3.0,-999.0,69,0.00,,,0.00,Wunderground v.1.15,2013-02-19 22:20:00,
2013-02-19 17:30:00,74.7,63.9,30.10,South,175,4.0,-999.0,69,0.00,,,0.00,Wunderground v.1.15,2013-02-19 22:30:00,
2013-02-19 17:35:00,74.7,63.9,30.10,South,171,3.0,-999.0,69,0.00,,,0.00,Wunderground v.1.15,2013-02-19 22:35:00,
2013-02-19 17:40:00,74.8,64.4,30.10,South,171,2.0,-999.0,70,0.00,,,0.00,Wunderground v.1.15,2013-02-19 22:40:00,
2013-02-19 17:45:00,74.5,64.1,30.10,SSW,193,2.0,-999.0,70,0.00,,,0.00,Wunderground v.1.15,2013-02-19 22:45:00,
2013-02-19 17:50:00,74.0,63.6,30.10,South,190,2.0,-999.0,70,0.00,,,0.00,Wunderground v.1.15,2013-02-19 22:50:00,
2013-02-19 17:55:00,73.7,64.1,30.10,South,190,2.0,-999.0,72,0.00,,,0.00,Wunderground v.1.15,2013-02-19 22:55:00,
2013-02-19 18:05:00,73.0,63.8,30.10,South,191,1.0,-999.0,73,0.00,,,0.00,Wunderground v.1.15,2013-02-19 23:05:00,
2013-02-19 18:10:00,72.6,63.8,30.10,South,191,2.0,-999.0,74,0.00,,,0.00,Wunderground v.1.15,2013-02-19 23:10:00,
2013-02-19 18:15:00,72.4,64.0,30.10,South,191,1.0,-999.0,75,0.00,,,0.00,Wunderground v.1.15,2013-02-19 23:15:00,
2013-02-19 18:25:00,72.0,63.6,30.11,South,189,1.0,-999.0,75,0.00,,,0.00,Wunderground v.1.15,2013-02-19 23:25:00,
2013-02-19 18:30:00,71.9,63.9,30.10,South,190,1.0,-999.0,76,0.00,,,0.00,Wunderground v.1.15,2013-02-19 23:30:00,
2013-02-19 18:35:00,71.7,63.7,30.10,South,190,0.0,-999.0,76,0.00,,,0.00,Wunderground v.1.15,2013-02-19 23:35:00,
2013-02-19 18:40:00,71.6,63.6,30.11,South,190,0.0,-999.0,76,0.00,,,0.00,Wunderground v.1.15,2013-02-19 23:40:00,
2013-02-19 18:45:00,71.3,63.7,30.11,South,190,0.0,-999.0,77,0.00,,,0.00,Wunderground v.1.15,2013-02-19 23:45:00,
2013-02-19 18:50:00,71.1,63.9,30.11,South,190,0.0,-999.0,78,0.00,,,0.00,Wunderground v.1.15,2013-02-19 23:50:00,
2013-02-19 18:55:00,70.8,64.0,30.11,South,190,0.0,-999.0,79,0.00,,,0.00,Wunderground v.1.15,2013-02-19 23:55:00,
2013-02-19 19:05:00,70.4,63.6,30.11,South,190,0.0,-999.0,79,0.00,,,0.00,Wunderground v.1.15,2013-02-20 00:05:00,
2013-02-19 19:10:00,70.2,63.7,30.11,South,190,0.0,-999.0,80,0.00,,,0.00,Wunderground v.1.15,2013-02-20 00:10:00,
2013-02-19 19:15:00,70.0,63.5,30.11,South,190,0.0,-999.0,80,0.00,,,0.00,Wunderground v.1.15,2013-02-20 00:15:00,
2013-02-19 19:24:00,69.6,63.5,30.11,South,190,0.0,-999.0,81,0.00,,,0.00,Wunderground v.1.15,2013-02-20 00:24:00,
2013-02-19 19:29:00,69.5,63.8,30.11,South,190,0.0,-999.0,82,0.00,,,0.00,Wunderground v.1.15,2013-02-20 00:29:00,
2013-02-19 19:34:00,69.2,63.5,30.11,South,190,0.0,-999.0,82,0.00,,,0.00,Wunderground v.1.15,2013-02-20 00:34:00,
2013-02-19 19:40:00,68.8,63.4,30.11,South,190,0.0,-999.0,83,0.00,,,0.00,Wunderground v.1.15,2013-02-20 00:40:00,
2013-02-19 19:50:00,68.2,63.2,30.11,South,190,0.0,-999.0,84,0.00,,,0.00,Wunderground v.1.15,2013-02-20 00:50:00,
2013-02-19 19:55:00,67.9,62.9,30.11,South,190,0.0,-999.0,84,0.00,,,0.00,Wunderground v.1.15,2013-02-20 00:55:00,
2013-02-19 20:00:00,67.7,62.7,30.11,South,190,0.0,-999.0,84,0.00,,,0.00,Wunderground v.1.15,2013-02-20 01:00:00,
2013-02-19 20:10:00,67.1,62.8,30.11,South,190,0.0,-999.0,86,0.00,,,0.00,Wunderground v.1.15,2013-02-20 01:10:00,
2013-02-19 20:15:00,66.8,62.5,30.11,South,190,0.0,-999.0,86,0.00,,,0.00,Wunderground v.1.15,2013-02-20 01:15:00,
2013-02-19 20:20:00,66.4,62.1,30.11,South,190,0.0,-999.0,86,0.00,,,0.00,Wunderground v.1.15,2013-02-20 01:20:00,
2013-02-19 20:25:00,66.2,62.2,30.11,South,190,0.0,-999.0,87,0.00,,,0.00,Wunderground v.1.15,2013-02-20 01:25:00,
2013-02-19 20:34:00,65.6,61.9,30.11,South,190,0.0,-999.0,88,0.00,,,0.00,Wunderground v.1.15,2013-02-20 01:34:00,
2013-02-19 20:39:00,65.4,61.8,30.11,South,190,0.0,-999.0,88,0.00,,,0.00,Wunderground v.1.15,2013-02-20 01:39:00,
2013-02-19 20:44:00,65.2,61.6,30.11,South,190,0.0,-999.0,88,0.00,,,0.00,Wunderground v.1.15,2013-02-20 01:44:00,
2013-02-19 20:50:00,65.0,61.4,30.11,South,190,0.0,-999.0,88,0.00,,,0.00,Wunderground v.1.15,2013-02-20 01:50:00,
2013-02-19 21:00:00,64.7,61.4,30.11,South,190,0.0,-999.0,89,0.00,,,0.00,Wunderground v.1.15,2013-02-20 02:00:00,
2013-02-19 21:05:00,64.5,61.5,30.11,South,190,0.0,-999.0,90,0.00,,,0.00,Wunderground v.1.15,2013-02-20 02:05:00,
2013-02-19 21:15:00,64.2,61.2,30.11,South,190,0.0,-999.0,90,0.00,,,0.00,Wunderground v.1.15,2013-02-20 02:15:00,
2013-02-19 21:20:00,64.1,61.1,30.11,South,190,0.0,-999.0,90,0.00,,,0.00,Wunderground v.1.15,2013-02-20 02:20:00,
2013-02-19 21:25:00,64.0,61.0,30.12,South,190,0.0,-999.0,90,0.00,,,0.00,Wunderground v.1.15,2013-02-20 02:25:00,
2013-02-19 21:30:00,63.9,60.9,30.12,South,190,0.0,-999.0,90,0.00,,,0.00,Wunderground v.1.15,2013-02-20 02:30:00,
2013-02-19 21:35:00,63.7,60.7,30.12,South,190,0.0,-999.0,90,0.00,,,0.00,Wunderground v.1.15,2013-02-20 02:35:00,
2013-02-19 21:44:00,63.4,60.7,30.12,South,190,0.0,-999.0,91,0.00,,,0.00,Wunderground v.1.15,2013-02-20 02:44:00,
2013-02-19 21:50:00,63.2,60.5,30.12,South,190,0.0,-999.0,91,0.00,,,0.00,Wunderground v.1.15,2013-02-20 02:50:00,
2013-02-19 21:55:00,63.1,60.4,30.12,South,190,0.0,-999.0,91,0.00,,,0.00,Wunderground v.1.15,2013-02-20 02:55:00,
2013-02-19 22:00:00,63.0,60.3,30.12,South,190,0.0,-999.0,91,0.00,,,0.00,Wunderground v.1.15,2013-02-20 03:00:00,
2013-02-19 22:10:00,62.8,60.4,30.12,South,190,0.0,-999.0,92,0.00,,,0.00,Wunderground v.1.15,2013-02-20 03:10:00,
2013-02-19 22:15:00,62.6,60.2,30.12,South,190,0.0,-999.0,92,0.00,,,0.00,Wunderground v.1.15,2013-02-20 03:15:00,
2013-02-19 22:20:00,62.5,60.1,30.12,South,190,0.0,-999.0,92,0.00,,,0.00,Wunderground v.1.15,2013-02-20 03:20:00,
2013-02-19 22:29:00,62.3,59.9,30.12,South,190,0.0,-999.0,92,0.00,,,0.00,Wunderground v.1.15,2013-02-20 03:29:00,
2013-02-19 22:34:00,62.2,59.8,30.12,South,190,0.0,-999.0,92,0.00,,,0.00,Wunderground v.1.15,2013-02-20 03:34:00,
2013-02-19 22:40:00,62.1,59.7,30.12,South,190,0.0,-999.0,92,0.00,,,0.00,Wunderground v.1.15,2013-02-20 03:40:00,
2013-02-19 22:50:00,61.8,59.8,30.12,South,190,0.0,-999.0,93,0.00,,,0.00,Wunderground v.1.15,2013-02-20 03:50:00,
2013-02-19 22:55:00,61.7,59.7,30.12,South,190,0.0,-999.0,93,0.00,,,0.00,Wunderground v.1.15,2013-02-20 03:55:00,
2013-02-19 23:00:00,61.6,59.6,30.12,South,190,0.0,-999.0,93,0.00,,,0.00,Wunderground v.1.15,2013-02-20 04:00:00,
2013-02-19 23:10:00,61.3,59.3,30.12,South,190,0.0,-999.0,93,0.00,,,0.00,Wunderground v.1.15,2013-02-20 04:10:00,
2013-02-19 23:15:00,61.3,59.3,30.12,South,190,0.0,-999.0,93,0.00,,,0.00,Wunderground v.1.15,2013-02-20 04:15:00,
2013-02-19 23:20:00,61.2,59.2,30.12,South,190,0.0,-999.0,93,0.00,,,0.00,Wunderground v.1.15,2013-02-20 04:20:00,
2013-02-19 23:25:00,61.2,59.2,30.11,South,190,0.0,-999.0,93,0.00,,,0.00,Wunderground v.1.15,2013-02-20 04:25:00,
2013-02-19 23:35:00,61.1,59.4,30.11,South,190,0.0,-999.0,94,0.00,,,0.00,Wunderground v.1.15,2013-02-20 04:35:00,
2013-02-19 23:40:00,61.1,59.1,30.11,South,190,0.0,-999.0,93,0.00,,,0.00,Wunderground v.1.15,2013-02-20 04:40:00,
2013-02-19 23:45:00,61.0,59.0,30.11,South,190,0.0,-999.0,93,0.00,,,0.00,Wunderground v.1.15,2013-02-20 04:45:00,
2013-02-19 23:50:00,60.9,58.9,30.10,South,190,0.0,-999.0,93,0.00,,,0.00,Wunderground v.1.15,2013-02-20 04:50:00,
2013-02-19 23:55:00,60.9,59.2,30.10,South,190,0.0,-999.0,94,0.00,,,0.00,Wunderground v.1.15,2013-02-20 04:55:00,